Powrót do katalogu

METEOR 3M

AktywnyPogodaSSO
NORAD 27001·PAYLOAD·🇷🇺 Russia

Wystrzelony Dec 10, 2001 z Baikonur Cosmodrome

Loading…

Następne Przeloty (najbliższe 24 godziny)

TLE

ŚwieżeSource: Space-Track

Epoka: Sep 14, 2026, 11:54 UTC

1 27001U 01056A   26257.49639501 -.00000031  00000-0  18677-4 0  9999
2 27001  99.8241  85.5873 0013294 333.0124  57.9055 13.69047510237106

Śledź METEOR 3M w czasie rzeczywistym z AllMySat

Download on the App Store